Location: Borowce
(50.8255°N, 19.6209°E)
Time: 08:35:21
(UTC+00:00)

Cosmos 1707 - Pass Details

Date: 19 May 2025
Orbit: 422 x 430 km, 82.5° (Epoch: 16 June)

Event Time Altitude Azimuth Distance (km) Brightness Sun altitude
Exits shadow 21:20:23 20° 94° (E) 1,054 4.0 -17.2°
Maximum altitude 21:20:34 21° 89° (E) 1,052 4.1 -17.2°
Drops below altitude 10° 21:23:08 10° 39° (NE) 1,550 5.5 -17.3°
Sets 21:25:32 0° 23° (NNE) 2,427 6.9 -17.4°
